Simultaneous Nadir Overpasses (SNOs) Predictions

Prediction of SNOs between GOES-14 and NPP Satellite Orbit:

Table of predicted SNOs for the next 14.0 days since TLE Epoch: 3/25/2023
Index Date Time (GOES-14) GOES-14 Lat,Lon NPP Lat,Lon Distance(km) Time Diff (sec)
1 03/27/2023 08:41:29 0.15,-108.00 0.16,-108.16 17.89 80
2 03/28/2023 08:20:05 0.15,-108.00 -0.86,-103.63 498.75 80
3 03/29/2023 20:42:02 -0.16,-108.04 -0.36,-108.93 101.44 80
4 03/30/2023 20:25:59 -0.16,-108.05 0.66,-104.40 415.99 80
5 04/01/2023 08:47:48 0.16,-108.04 0.50,-109.67 185.32 80
6 04/02/2023 08:26:24 0.16,-108.04 -0.47,-105.13 331.46 80
7 04/03/2023 20:48:21 -0.17,-108.07 -0.73,-110.43 269.82 80
8 04/04/2023 20:32:18 -0.17,-108.08 0.31,-105.91 247.88 80
9 04/06/2023 08:54:07 0.17,-108.09 0.84,-111.18 351.85 80
10 04/07/2023 08:32:43 0.17,-108.09 -0.15,-106.64 164.90 80
